Regional Weather Roundup
Issued by NWS Upton, NY

Current Version | Previous Version | Text Only | Print | Product List | Glossary On
Versions: 1 2 3 4 5 6 7 8 9 10 11 12 13 14 15 16 17 18 19 20 21 22 23 24 25 26 27 28 29 30 31 32 33 34 35 36 37 38 39 40 41 42 43 44 45 46 47 48 49 50
915 ASUS41 KOKX 240508 RWROKX REGIONAL WEATHER ROUNDUP NATIONAL WEATHER SERVICE NEW YORK NY 100 AM EDT FRI MAR 24 2017 NOTE: "FAIR" INDICATES FEW OR NO CLOUDS BELOW 12,000 FEET WITH NO SIGNIFICANT WEATHER AND/OR OBSTRUCTIONS TO VISIBILITY. NYZ071-072-176-178-NJZ106-104-240600- NEW YORK CITY METRO AREA CITY SKY/WX TMP DP RH WIND PRES REMARKS Central Park CLEAR 38 18 44 CALM 30.55R Wall St Helipt CLEAR 37 27 65 W5 30.54F WCI 34 LaGuardia APRT PTCLDY 40 20 44 S6 30.53S Kennedy INTL PTCLDY 35 26 69 SW7 30.55S WCI 29 Breezy Point N/A 36 N/A N/A SW7 N/A WCI 30 Newark/Liberty PTCLDY 36 21 54 CALM 30.53S Teterboro CLEAR 35 17 47 CALM 30.53S $$ NYZ177-179-078>081-240600- LONG ISLAND NEW YORK CITY SKY/WX TMP DP RH WIND PRES REMARKS Jones Beach N/A 37 N/A N/A SW8G14 N/A WCI 31 Matinecock PT NOT AVBL Farmingdale CLEAR 31 22 69 CALM 30.55R MacArthur/ISP CLEAR 28 22 78 CALM 30.54R Shirley PTCLDY 26 19 74 CALM 30.56R Westhampton PTCLDY 17 8 67 CALM 30.57R East Hampton N/A 19 9 63 CALM 30.55R Montauk NOT AVBL $$ NYZ052-065-067-240600- HUDSON VALLEY CITY SKY/WX TMP DP RH WIND PRES REMARKS White Plains CLEAR 29 21 72 CALM 30.51S Newburgh NOT AVBL Montgomery PTCLDY 26 14 60 SW3 30.49F Poughkeepsie CLEAR 23 14 68 E3 30.50F Albany CLOUDY 29 9 43 S3 30.49F $$ NJZ001-105-106-008-010-013-015-019>022-104-240600- NEW JERSEY CITY SKY/WX TMP DP RH WIND PRES REMARKS Newark/Liberty PTCLDY 36 21 54 CALM 30.53S Teterboro CLEAR 35 17 47 CALM 30.53S Caldwell CLEAR 29 15 56 CALM 30.53F Somerville PTCLDY 25 16 68 CALM 30.51F Linden N/A 33 19 56 CALM 30.55S Sussex PTCLDY 23 15 71 CALM 30.49F Andover N/A 24 16 71 CALM 30.49F Trenton CLEAR 32 14 47 CALM 30.52F Millville CLEAR 26 23 88 CALM 30.54F Atlantic City CLEAR 32 21 64 S6 30.55F WCI 26 Wrightstown CLEAR 27 15 60 S3 30.51F Toms River CLEAR 24 16 71 CALM 30.55S Belmar CLEAR 32 15 49 S5 30.54F WCI 27 $$ PAZ047>061-062-071-240600- EASTERN PENNSYLVANIA CITY SKY/WX TMP DP RH WIND PRES REMARKS Philadelphia CLEAR 35 25 66 S9 30.54F WCI 28 Allentown CLEAR 25 15 66 N3 30.50F Scranton CLOUDY 29 12 49 CALM 30.42F $$ CTZ002-004>006-009-010-012-RIZ004-006-007-MAZ004-011-015-240600- SOUTHERN NEW ENGLAND IN CT CITY SKY/WX TMP DP RH WIND PRES REMARKS Bradley INTL PTCLDY 25 8 48 CALM 30.54R Hartford PTCLDY 26 12 55 CALM 30.55R Danbury CLEAR 22 14 71 CALM 30.53S Wtrbury/Oxford CLEAR 25 5 42 CALM 30.50F Bridgeport CLEAR 30 18 60 CALM 30.55R Meriden PTCLDY 25 15 66 CALM 30.54R New Haven CLEAR 25 15 66 CALM 30.54R Chester N/A 25 9 50 CALM 30.53R Groton CLEAR 23 12 62 CALM 30.55R Wilimantic PTCLDY 23 16 74 CALM 30.55R IN RI CITY SKY/WX TMP DP RH WIND PRES REMARKS Providence CLEAR 29 4 34 W5 30.54S WCI 24 Block Island CLEAR 32 8 36 W6 30.54F WCI 26 Westerly CLEAR 24 12 60 CALM 30.55R IN MA CITY SKY/WX TMP DP RH WIND PRES REMARKS Boston CLEAR 32 5 32 W9 30.54R WCI 24 Worcester CLOUDY 25 4 40 W7 30.48R WCI 17 Westfield CLEAR 22 12 65 CALM 30.51R Provincetown CLEAR 34 16 47 W9 30.54R WCI 27 Nantucket CLEAR 30 12 47 W7 30.54S WCI 23 $$ ANZ330-335-338-340-345-350-353-355-240600- COASTAL MARINE OBSERVATIONS STATION/POSITION TIME SKY/WX TEMP WIND PRES VSBY WAVE AIR SEA DIR/SP/G HT/PER (UTC) (F) (DEG/KT/KT) (MB) (MI) (FT/S) NY HARB ENTRANCE 0350 40 41 200/ 12/ 14 1034.4 2/ 4 20 S FIRE ISLAND 0450 40 40 210/ 12/ 14 1034.2 2/ 3 GREAT SOUTH BAY NOT AVBL 23 SSW MONTAUK P 0350 38 42 1035.6 2/11 15 E BARNEGAT LI 0430 42 N/A 2/10 HUDSON CANYON 0350 39 44 240/ 10/ 12 1036.0 2/ 4 KINGS POINT 0442 36 38 1034.1 EXECUTION ROCKS NOT AVBL CENTRAL LI SOUND 0430 36 220/ 8/ 10 N/A 1 EASTERN LI SOUND NOT AVBL ROBBINS REEF 0442 37 170/ 4/ 5 1034.2 $$ >>>>>>>>>>>>>>>>>>>>>>>>>>>> KEY <<<<<<<<<<<<<<<<<<<<<<<<<<< > < > SKY/WX - Sky Condition/Present Weather < > TMP - Temperature in Fahrenheit < > DP - Dew Point in Fahrenheit < > RH - Relative Humidity in Percent < > WIND - Direction (from) and Speed in MPH < > PRES - Mean Sea Level Pressure (inches of Hg) < > WCI - Wind Chill Index < > VSB - VISIBILITY IN MILES < > HX - HEAT INDEX < > TC - TEMPERATURE IN CELSIUS < > VRB - VARIABLE WIND DIRECTION < > < >>>>>>>>>>>>>>>>>>>>>>>>>>>> KEY <<<<<<<<<<<<<<<<<<<<<<<<<<<

USA.gov is the U.S. government's official web portal to all federal, state and local government web resources and services.